When you browse on this site, cookies collect data to enhance your experience and personalize the content and advertising you see.
Visit our Privacy Policy to learn more. By continuing to use the site, you agree to this use of cookies and data.
  • In Österreich
  • Länderverzeichnis
  • Für 7 Tage
  • Wassertemperatur
  • Satellitenkarten
  • Wetterkarte
  • News
  • Widgets
  • user-avatar
    Anmelden

    Stündliche Wetter Cranford

    Heute, 27 Juni, Donnerstag

    Zeit Temperatur Niederschläge Wind Luftdruck Luftfeuchtigkeit
    00:00 +27°C° 0 mm 3 m/S 761 mmHg 62%
    01:00 +26°C° 0 mm 3 m/S 762 mmHg 62%
    02:00 +26°C° 0 mm 3 m/S 762 mmHg 63%
    03:00 +25°C° 0 mm 3 m/S 762 mmHg 65%
    04:00 +24°C° 0 mm 3 m/S 762 mmHg 67%
    05:00 +25°C° 0 mm 3 m/S 762 mmHg 65%
    06:00 +25°C° 0 mm 3 m/S 763 mmHg 63%
    07:00 +26°C° 0 mm 3 m/S 763 mmHg 61%
    08:00 +28°C° 0 mm 2 m/S 763 mmHg 53%
    09:00 +29°C° 0 mm 2 m/S 763 mmHg 45%
    10:00 +31°C° 0 mm 2 m/S 763 mmHg 38%
    11:00 +32°C° 0 mm 2 m/S 763 mmHg 34%
    12:00 +34°C° 0 mm 2 m/S 763 mmHg 31%
    13:00 +35°C° 0 mm 2 m/S 763 mmHg 28%
    14:00 +35°C° 0 mm 2 m/S 762 mmHg 27%
    15:00 +35°C° 0 mm 3 m/S 762 mmHg 27%
    16:00 +35°C° 0 mm 3 m/S 762 mmHg 27%
    17:00 +34°C° 0 mm 3 m/S 762 mmHg 32%
    18:00 +32°C° 0 mm 2 m/S 762 mmHg 37%
    19:00 +31°C° 0 mm 2 m/S 763 mmHg 41%
    20:00 +30°C° 0 mm 2 m/S 763 mmHg 42%
    21:00 +29°C° 0 mm 2 m/S 763 mmHg 43%
    22:00 +28°C° 0 mm 2 m/S 763 mmHg 44%
    23:00 +28°C° 0 mm 2 m/S 763 mmHg 48%

    Morgen, 28 Juni, Freitag

    Zeit Temperatur Niederschläge Wind Luftdruck Luftfeuchtigkeit
    00:00 +27°C° 0 mm 1 m/S 763 mmHg 52%
    01:00 +27°C° 0 mm 1 m/S 763 mmHg 56%
    02:00 +26°C° 0 mm 1 m/S 763 mmHg 58%
    03:00 +26°C° 0 mm 1 m/S 763 mmHg 59%
    04:00 +25°C° 0 mm 1 m/S 763 mmHg 61%
    05:00 +26°C° 0 mm 1 m/S 764 mmHg 57%
    06:00 +27°C° 0 mm 1 m/S 764 mmHg 54%
    07:00 +28°C° 0 mm 1 m/S 764 mmHg 51%
    08:00 +30°C° 0 mm 1 m/S 764 mmHg 46%
    09:00 +31°C° 0 mm 1 m/S 764 mmHg 42%
    10:00 +33°C° 0 mm 1 m/S 764 mmHg 38%
    11:00 +33°C° 0 mm 1 m/S 764 mmHg 38%
    12:00 +35°C° 0 mm 2 m/S 763 mmHg 37%
    13:00 +35°C° 0 mm 2 m/S 763 mmHg 37%
    14:00 +35°C° 0 mm 3 m/S 763 mmHg 37%
    15:00 +35°C° 0 mm 3 m/S 762 mmHg 38%
    16:00 +35°C° 0 mm 3 m/S 762 mmHg 38%
    17:00 +34°C° 0 mm 3 m/S 762 mmHg 43%
    18:00 +33°C° 0 mm 3 m/S 762 mmHg 48%
    19:00 +31°C° 0 mm 3 m/S 762 mmHg 53%
    20:00 +30°C° 0.1 mm 3 m/S 762 mmHg 57%
    21:00 +29°C° 0.1 mm 2 m/S 762 mmHg 61%
    22:00 +28°C° 0.1 mm 2 m/S 761 mmHg 65%
    23:00 +28°C° 0.1 mm 2 m/S 761 mmHg 67%

    übermorgen, 29 Juni, Samstag

    Zeit Temperatur Niederschläge Wind Luftdruck Luftfeuchtigkeit
    00:00 +27°C° 0.1 mm 2 m/S 761 mmHg 68%
    01:00 +27°C° 0.1 mm 2 m/S 761 mmHg 69%
    02:00 +27°C° 0.2 mm 2 m/S 761 mmHg 71%
    03:00 +26°C° 0.2 mm 2 m/S 760 mmHg 73%
    04:00 +26°C° 0.2 mm 1 m/S 760 mmHg 75%
    05:00 +26°C° 0.4 mm 2 m/S 760 mmHg 74%
    06:00 +26°C° 0.4 mm 2 m/S 760 mmHg 73%
    07:00 +27°C° 0.4 mm 2 m/S 760 mmHg 72%
    08:00 +29°C° 0 mm 2 m/S 760 mmHg 64%
    09:00 +31°C° 0 mm 2 m/S 759 mmHg 56%
    10:00 +34°C° 0 mm 3 m/S 759 mmHg 49%
    11:00 +35°C° 0 mm 4 m/S 759 mmHg 47%
    12:00 +35°C° 0 mm 4 m/S 758 mmHg 45%
    13:00 +36°C° 0 mm 5 m/S 758 mmHg 43%
    14:00 +36°C° 0 mm 5 m/S 757 mmHg 44%
    15:00 +35°C° 0 mm 6 m/S 757 mmHg 45%
    16:00 +35°C° 0 mm 6 m/S 756 mmHg 47%
    17:00 +34°C° 0 mm 5 m/S 756 mmHg 50%
    18:00 +33°C° 0 mm 5 m/S 756 mmHg 54%
    19:00 +32°C° 0 mm 5 m/S 756 mmHg 58%
    20:00 +30°C° 0 mm 4 m/S 756 mmHg 59%
    21:00 +29°C° 0 mm 4 m/S 757 mmHg 60%
    22:00 +28°C° 0 mm 4 m/S 757 mmHg 62%
    23:00 +27°C° 0 mm 4 m/S 757 mmHg 64%

    30 Juni, Sonntag

    Zeit Temperatur Niederschläge Wind Luftdruck Luftfeuchtigkeit
    00:00 +26°C° 0 mm 3 m/S 756 mmHg 67%
    01:00 +25°C° 0 mm 3 m/S 756 mmHg 69%
    02:00 +25°C° 0 mm 3 m/S 756 mmHg 70%
    03:00 +24°C° 0 mm 3 m/S 756 mmHg 71%
    04:00 +24°C° 0 mm 3 m/S 756 mmHg 72%
    05:00 +25°C° 0 mm 3 m/S 756 mmHg 69%
    06:00 +25°C° 0 mm 4 m/S 755 mmHg 66%
    07:00 +26°C° 0 mm 4 m/S 755 mmHg 63%
    08:00 +28°C° 0 mm 5 m/S 755 mmHg 57%
    09:00 +29°C° 0 mm 5 m/S 755 mmHg 50%
    10:00 +32°C° 0 mm 6 m/S 755 mmHg 44%
    11:00 +32°C° 0 mm 6 m/S 754 mmHg 41%
    12:00 +32°C° 0 mm 7 m/S 754 mmHg 39%
    13:00 +33°C° 0 mm 7 m/S 753 mmHg 36%
    14:00 +33°C° 0 mm 7 m/S 753 mmHg 34%
    15:00 +32°C° 0 mm 7 m/S 753 mmHg 32%
    16:00 +32°C° 0 mm 8 m/S 753 mmHg 30%
    17:00 +29°C° 0 mm 7 m/S 754 mmHg 34%
    18:00 +28°C° 0 mm 7 m/S 754 mmHg 38%
    19:00 +26°C° 0 mm 6 m/S 755 mmHg 42%
    20:00 +24°C° 0 mm 6 m/S 755 mmHg 45%
    21:00 +23°C° 0 mm 6 m/S 756 mmHg 49%
    22:00 +22°C° 0 mm 5 m/S 756 mmHg 52%
    23:00 +21°C° 0 mm 5 m/S 757 mmHg 54%

    1 Juli, Montag

    Zeit Temperatur Niederschläge Wind Luftdruck Luftfeuchtigkeit
    00:00 +21°C° 0 mm 4 m/S 757 mmHg 56%
    01:00 +20°C° 0 mm 4 m/S 757 mmHg 58%
    02:00 +20°C° 0 mm 4 m/S 757 mmHg 59%
    03:00 +20°C° 0 mm 4 m/S 757 mmHg 59%
    04:00 +20°C° 0 mm 4 m/S 757 mmHg 60%
    05:00 +21°C° 0 mm 4 m/S 757 mmHg 57%
    06:00 +22°C° 0 mm 3 m/S 758 mmHg 55%
    07:00 +22°C° 0 mm 3 m/S 758 mmHg 53%
    08:00 +25°C° 0 mm 2 m/S 758 mmHg 48%
    09:00 +27°C° 0 mm 2 m/S 758 mmHg 43%
    10:00 +29°C° 0 mm 2 m/S 758 mmHg 38%
    11:00 +30°C° 0 mm 2 m/S 758 mmHg 36%
    12:00 +31°C° 0 mm 2 m/S 758 mmHg 33%
    13:00 +32°C° 0 mm 2 m/S 757 mmHg 31%
    14:00 +32°C° 0 mm 2 m/S 757 mmHg 32%
    15:00 +33°C° 0 mm 3 m/S 757 mmHg 33%
    16:00 +33°C° 0 mm 3 m/S 756 mmHg 34%
    17:00 +31°C° 0 mm 3 m/S 756 mmHg 38%
    18:00 +30°C° 0 mm 3 m/S 756 mmHg 42%
    19:00 +29°C° 0 mm 3 m/S 756 mmHg 46%
    20:00 +29°C° 0 mm 3 m/S 756 mmHg 49%
    21:00 +28°C° 0 mm 3 m/S 756 mmHg 52%
    22:00 +27°C° 0 mm 4 m/S 756 mmHg 54%
    23:00 +27°C° 0.1 mm 4 m/S 756 mmHg 58%

    2 Juli, Dienstag

    Zeit Temperatur Niederschläge Wind Luftdruck Luftfeuchtigkeit
    00:00 +26°C° 0.1 mm 4 m/S 755 mmHg 63%
    01:00 +26°C° 0.1 mm 4 m/S 755 mmHg 67%
    02:00 +25°C° 0.3 mm 4 m/S 754 mmHg 69%
    03:00 +25°C° 0.3 mm 4 m/S 754 mmHg 71%
    04:00 +23°C° 0.3 mm 4 m/S 754 mmHg 73%
    05:00 +25°C° 0.1 mm 4 m/S 754 mmHg 74%
    06:00 +25°C° 0.1 mm 3 m/S 754 mmHg 75%
    07:00 +26°C° 0.1 mm 3 m/S 754 mmHg 75%
    08:00 +28°C° 0.1 mm 3 m/S 754 mmHg 64%
    09:00 +30°C° 0.1 mm 4 m/S 754 mmHg 53%
    10:00 +33°C° 0.1 mm 4 m/S 754 mmHg 42%
    11:00 +34°C° 0 mm 4 m/S 754 mmHg 36%
    12:00 +35°C° 0 mm 4 m/S 754 mmHg 30%
    13:00 +36°C° 0 mm 4 m/S 753 mmHg 24%
    14:00 +36°C° 0 mm 4 m/S 753 mmHg 25%
    15:00 +36°C° 0 mm 5 m/S 753 mmHg 26%
    16:00 +36°C° 0 mm 5 m/S 753 mmHg 27%
    17:00 +35°C° 0 mm 5 m/S 753 mmHg 31%
    18:00 +33°C° 0 mm 5 m/S 754 mmHg 35%
    19:00 +32°C° 0 mm 5 m/S 754 mmHg 38%
    20:00 +29°C° 0 mm 5 m/S 754 mmHg 42%
    21:00 +28°C° 0 mm 5 m/S 755 mmHg 45%
    22:00 +26°C° 0 mm 4 m/S 755 mmHg 48%
    23:00 +26°C° 0 mm 4 m/S 755 mmHg 51%
    Mehr zeigen